Nuiqsut, AK

10:57 AM AKDT on April 29, 2017 (GMT -0800)
Nuiqsut

Weather History for PAQT - October, 2011

Change the Weather History Date:

Wednesday, October 5, 2011

  Actual Average (PAKU) Record (PAKU)
Temperature  
Mean Temperature 24 °F -  
Max Temperature 28 °F 25 °F 41 °F (2012)
Min Temperature 19 °F 19 °F 3 °F (1992)
Degree Days  
Heating Degree Days 42    
Moisture  
Dew Point 24 °F    
Average Humidity 97    
Maximum Humidity 100    
Minimum Humidity 86    
Precipitation  
Precipitation 0.00 in - - ()
Sea Level Pressure  
Sea Level Pressure 29.67 in    
Wind  
Wind Speed 4 mph (WNW)    
Max Wind Speed 7 mph    
Max Gust Speed -    
Visibility 8 miles    
Events      
Averages and records for this station are not official NWS values.
T = Trace of Precipitation, MM = Missing Value Source: NWS Daily Summary

Daily Weather History Graph

Daily Weather History Graph

Search for Another Location

Airport or City:

Trip Planner

Search our weather history database for the weather conditions in past years. The results will help you decide how hot, cold, wet, or windy it might be!

Date:

Astronomy

Oct. 05, 2011 Rise Set
Actual Time 8:36 AM AKDT 7:06 PM AKDT
Civil Twilight 7:34 AM AKDT 8:08 PM AKDT
Nautical Twilight 6:21 AM AKDT 9:20 PM AKDT
Astronomical Twilight 4:59 AM AKDT 10:41 PM AKDT
Moon 6:52 PM AKDT (10/5) No Moon Set
Length of Visible Light 12h 33m
Length of Day
10h 30m
Waxing Gibbous, 67% of the Moon is Illuminated
Oct 5
Waxing Gibbous
Oct 11
Full
Oct 19
Last Quarter
Oct 26
New
Nov 2
First Quarter

Hourly Weather History & Observations

Time (AKDT) Temp. Windchill Dew Point Humidity Pressure Visibility Wind Dir Wind Speed Gust Speed Precip Events Conditions
12:42 AM 21.2 °F 13.6 °F 21.2 °F 100% 29.67 in 2.5 mi South 5.8 mph - N/A   Overcast
12:49 AM 21.2 °F 12.6 °F 21.2 °F 100% 29.67 in 8.0 mi South 6.9 mph - N/A   Overcast
12:53 AM 21.9 °F 13.4 °F 21.9 °F 100% 29.67 in 10.0 mi South 6.9 mph - N/A   Overcast
1:08 AM 21.2 °F 13.6 °F 21.2 °F 100% 29.67 in 10.0 mi South 5.8 mph - N/A   Overcast
1:53 AM 21.9 °F 13.4 °F 21.0 °F 96% 29.68 in 10.0 mi SSW 6.9 mph - N/A   Overcast
2:14 AM 21.2 °F 13.6 °F 21.2 °F 100% 29.68 in 10.0 mi South 5.8 mph - N/A   Overcast
2:53 AM 21.9 °F 15.7 °F 21.9 °F 100% 29.68 in 7.0 mi South 4.6 mph - N/A   Overcast
4:30 AM 24.8 °F 20.5 °F 23.0 °F 93% 29.68 in - SSE 3.5 mph - N/A   Unknown
7:53 AM 23.0 °F 18.4 °F 21.9 °F 96% 29.68 in 10.0 mi SE 3.5 mph - N/A   Overcast
8:53 AM 23.0 °F - 23.0 °F 100% 29.68 in 10.0 mi Calm Calm - N/A   Overcast
9:53 AM 21.9 °F - 21.9 °F 100% 29.68 in 10.0 mi Calm Calm - N/A   Overcast
10:53 AM 25.0 °F - 24.1 °F 96% 29.68 in 10.0 mi Calm Calm - N/A   Overcast
11:26 AM 26.6 °F - 24.8 °F 93% 29.68 in 10.0 mi Calm Calm - N/A   Mostly Cloudy
11:48 AM 26.6 °F - 24.8 °F 93% 29.68 in 10.0 mi Calm Calm - N/A   Mostly Cloudy
11:53 AM 26.1 °F - 25.0 °F 96% 29.68 in 10.0 mi Calm Calm - N/A   Mostly Cloudy
12:02 PM 26.6 °F - 26.6 °F 100% 29.68 in 10.0 mi Calm Calm - N/A   Scattered Clouds
12:53 PM 27.0 °F - 26.1 °F 96% 29.68 in 10.0 mi Calm Calm - N/A   Clear
1:53 PM 27.0 °F - 25.0 °F 92% 29.68 in 10.0 mi Calm Calm - N/A   Partly Cloudy
2:53 PM 28.0 °F - 26.1 °F 92% 29.68 in 10.0 mi Calm Calm - N/A   Overcast
3:04 PM 28.4 °F - 24.8 °F 86% 29.67 in 10.0 mi Calm Calm - N/A   Overcast
3:53 PM 28.0 °F - 26.1 °F 92% 29.67 in 10.0 mi Calm Calm - N/A   Overcast
4:53 PM 27.0 °F 23.0 °F 25.0 °F 92% 29.66 in 10.0 mi NNE 3.5 mph - N/A   Partly Cloudy
5:53 PM 25.0 °F 20.7 °F 24.1 °F 96% 29.66 in 10.0 mi North 3.5 mph - N/A   Clear
6:53 PM 23.0 °F 18.4 °F 21.9 °F 96% 29.66 in 10.0 mi North 3.5 mph - N/A   Mostly Cloudy
7:53 PM 21.0 °F 16.2 °F 21.0 °F 100% 29.66 in 10.0 mi NW 3.5 mph - N/A   Overcast
8:05 PM 19.4 °F 14.3 °F 19.4 °F 100% 29.65 in 10.0 mi NW 3.5 mph - N/A   Overcast
8:53 PM 21.9 °F 15.7 °F 21.0 °F 96% 29.66 in 10.0 mi NW 4.6 mph - N/A   Overcast
9:53 PM 24.1 °F 19.7 °F 24.1 °F 100% 29.66 in 7.0 mi NNW 3.5 mph - N/A   Overcast
9:59 PM 24.8 °F 20.5 °F 24.8 °F 100% 29.65 in 1.8 mi NNW 3.5 mph - N/A   Overcast
10:11 PM 24.8 °F 20.5 °F 24.8 °F 100% 29.65 in 0.8 mi NNW 3.5 mph - N/A   Overcast
10:41 PM 24.8 °F - 24.8 °F 100% 29.65 in 1.5 mi Calm Calm - N/A   Overcast
10:50 PM 26.6 °F - 26.6 °F 100% 29.66 in 2.5 mi Calm Calm - N/A   Overcast
10:53 PM 26.1 °F - 26.1 °F 100% 29.66 in 2.5 mi Calm Calm - N/A   Overcast
11:07 PM 26.6 °F 22.6 °F 24.8 °F 93% 29.66 in 1.5 mi NNW 3.5 mph - N/A   Overcast
11:24 PM 26.6 °F 22.6 °F 26.6 °F 100% 29.65 in 3.0 mi North 3.5 mph - N/A   Overcast
11:53 PM 27.0 °F - 27.0 °F 100% 29.66 in 10.0 mi Calm Calm - N/A   Overcast